Regional Weather Roundup
Issued by NWS Charleston, WV

Home | Current Version | Previous Version | Text Only | Print | Product List | Glossary On
Versions: 1 2 3 4 5 6 7 8 9 10 11 12 13 14 15 16 17 18 19 20 21 22 23 24 25 26 27 28 29 30 31 32 33 34 35 36 37 38 39 40 41 42 43 44 45 46 47 48 49 50
000
ASUS41 KRLX 012310
RWRRLX
West Virginia Regional Weather Roundup
National Weather Service Charleston WV
600 PM EST SUN FEB 01 2015

Note: "fair" indicates few or no clouds below 12,000 feet with no
significant weather and/or obstructions to visibility.

WVZ003-020000-
Northern Panhandle of West Virginia

CITY           SKY/WX    TMP DP  RH WIND       PRES   REMARKS
WHEELING       LGT RAIN  37  33  85 SE9       29.77F
$$

WVZ009-020000-
Northwest West Virginia

CITY           SKY/WX    TMP DP  RH WIND       PRES   REMARKS
PARKERSBURG    LGT RAIN  38  36  92 SE7       29.77F
$$

WVZ006-020000-
Western West Virginia

CITY           SKY/WX    TMP DP  RH WIND       PRES   REMARKS
HUNTINGTON     LGT RAIN  44  41  89 S7        29.71F
$$

WVZ015-020000-
West Central West Virginia

CITY           SKY/WX    TMP DP  RH WIND       PRES   REMARKS
CHARLESTON     LGT RAIN  44  38  79 SE7       29.76F
$$

WVZ022-031-020000-
North Central West Virginia

CITY           SKY/WX    TMP DP  RH WIND       PRES   REMARKS
CLARKSBURG     LGT RAIN  43  34  70 S17G26    29.81F
MORGANTOWN     LGT RAIN  42  33  70 S12       29.83S
$$

WVZ025-035-042-045-020000-
Southern West Virginia

CITY           SKY/WX    TMP DP  RH WIND       PRES   REMARKS
BECKLEY        LGT RAIN  39  33  79 S14       29.82F
LOGAN          LGT RAIN  45  39  81 S14G22    29.75F
BLUEFIELD      LGT RAIN  43  32  65 S8        29.85F
LEWISBURG      LGT RAIN  44  30  59 S7        29.89F
$$

WVZ047-020000-
Northern Mountains of West Virginia

CITY           SKY/WX    TMP DP  RH WIND       PRES   REMARKS
ELKINS         CLOUDY    41  24  51 S12G21    29.85F
$$

WVZ052-020000-
Eastern Panhandle of West Virginia

CITY           SKY/WX    TMP DP  RH WIND       PRES   REMARKS
MARTINSBURG    CLOUDY    38  21  50 SE5       30.00F
PETERSBURG     CLOUDY    38  28  69 NW6       29.92F
$$


USA.gov is the U.S. government's official web portal to all federal, state and local government web resources and services.